Regional Weather Roundup
Issued by NWS

Home | Current Version | Previous Version | Text Only | Print | Product List | Glossary On
Versions: 1 2 3 4 5 6 7 8 9 10 11 12 13 14 15 16 17 18 19 20 21 22 23 24 25 26 27 28 29 30 31 32 33 34 35 36 37 38 39 40 41 42 43 44 45 46 47 48 49 50
000
ASUS43 KDTX 292001
RWRMI
MICHIGAN HOURLY REGIONAL WEATHER ROUNDUP
NATIONAL WEATHER SERVICE DETROIT/PONTIAC MI
400 PM EDT MON JUN 29 2015

NOTE: "FAIR" INDICATES FEW OR NO CLOUDS BELOW 12,000 FEET WITH NO
SIGNIFICANT WEATHER AND/OR OBSTRUCTION TO VISIBILITY.

MIZ047>049-052>055-059>063-066>070-074>076-081>083-292100-
SOUTHEAST LOWER MICHIGAN

CITY           SKY/WX    TMP DP  RH WIND       PRES   REMARKS
ADRIAN         CLOUDY    68  56  65 S15       29.88F
ALMA           PTSUNNY   74  54  50 S8        29.84F
ANN ARBOR      PTSUNNY   73  57  57 S10       29.86F
BAD AXE        PTSUNNY   79  53  40 S13       29.85S
CARO           PTSUNNY   80  57  45 S8        29.83F
DETROIT CITY   MOSUNNY   74  54  49 S15       29.87F
DETROIT        PTSUNNY   73  56  54 S15       29.88F
FLINT          LGT RAIN  69  58  67 SW3       29.86R
GROSSE ILE       N/A     70  61  73 S7        29.87F
HILLSDALE      PTSUNNY   66  59  77 S10G16    29.88S
HOWELL         CLOUDY    70  57  63 S7        29.86F

CITY           SKY/WX    TMP DP  RH WIND       PRES   REMARKS
JACKSON        CLOUDY    70  57  63 SE12      29.86F
LAMBERTVILLE   CLOUDY    70  57  63 S9        29.87F
LANSING        MOSUNNY   73  58  59 S13       29.86S
LAPEER         FAIR      73  55  52 S7G20     29.86S
MASON          CLOUDY    68  58  68 SE8       29.86S
MONROE         PTSUNNY   69  57  65 S12       29.87F
MT. CLEMENS    PTSUNNY   73  58  58 S16G23    29.85S
PONTIAC        PTSUNNY   71  56  58 S13G20    29.86S
PORT HOPE        N/A     71  59  65 SE14      29.83F
PORT HURON     CLOUDY    75  63  64 SW10      29.86F
TRI CITIES     MOSUNNY   80  53  39 S14       29.83F
MIDLAND        FAIR      81  50  34 S6        29.81F
TROY           MOSUNNY   74  52  46 S12G17    29.89S
SAGINAW HB     CLOUDY    77  54  44 SE9       29.82F
$$
MIZ043>046-050>051-056>058-064>065-071>073-077>080-292100-
SOUTHWEST LOWER MICHIGAN

CITY           SKY/WX    TMP DP  RH WIND       PRES   REMARKS
BATTLE CREEK   CLOUDY    73  56  54 SE12      29.84F
BENTON HARBOR  PTSUNNY   70  62  76 SE8       29.82F
BIG RAPIDS     CLOUDY    74  55  50 SW10G20   29.82R
COLDWATER      CLOUDY    66  56  70 SE12      29.85F
FREMONT        FAIR      69  59  71 SW6       29.82F
HOLLAND        PTSUNNY   74  59  59 SE10      29.83S
GRAND RAPIDS   PTSUNNY   71  60  68 S14       29.84S
IONIA          FAIR      75  56  51 S16       29.84S
KALAMAZOO      PTSUNNY   74  57  55 SE8       29.84S
LUDINGTON      MOSUNNY   76  65  67 SW10      29.82S
MARSHALL       PTSUNNY   69  56  63 SE8       29.85S
MOUNT PLEASANT SUNNY     80  50  34 S12G17    29.82S
MUSKEGON       CLOUDY    71  63  75 SW3       29.82F
SOUTH HAVEN    HVY RAIN  64  61  90 CALM      29.84S
$$
MIZ016>042-292100-
NORTHERN LOWER MICHIGAN

CITY           SKY/WX    TMP DP  RH WIND       PRES   REMARKS
ALPENA         MOSUNNY   77  54  44 SE8       29.80F
BEAVER ISLAND  SUNNY     76  51  42 SW7       29.79F
BELLAIRE       SUNNY     82  48  30 CALM      29.78F
CADILLAC       SUNNY     79  53  39 S8        29.81F
CHARLEVOIX     SUNNY     79  49  34 W9        29.82F
FRANKFORT      SUNNY     72  54  52 W5        29.80F
GAYLORD        MOSUNNY   80  48  32 SW15      29.81F
GRAYLING       MOSUNNY   81  52  37 SW8       29.82F
HARBOR SPRINGS SUNNY     79  45  30 SW6       29.79F
HOUGHTON LAKE  MOSUNNY   80  51  36 S10       29.82F
MANISTEE       MOSUNNY   72  55  56 W10       29.81F
OSCODA         SUNNY     77  52  41 SE13      29.83S
PELLSTON       SUNNY     81  46  29 SW12      29.79F
ROGERS CITY    MOSUNNY   81  53  38 S10G16    29.79F
TRAVERSE CITY  PTSUNNY   83  50  31 VRB6      29.76F
$$
MIZ007>008-015-292100-
EASTERN UPPER MICHIGAN

CITY           SKY/WX    TMP DP  RH WIND       PRES   REMARKS
KINROSS        SUNNY     79  46  31 S9        29.78F
MACKINAC ISLAN SUNNY     75  45  34 W6        29.79F
NEWBERRY       SUNNY     74  55  50 S13       29.77F
S. S. MARIE    SUNNY     80  49  33 SW10G18   29.76F
MUNISING         N/A     70  63  78 NW3       29.72F
$$
MIZ004>006-011>014-085-292100-
CENTRAL UPPER MICHIGAN

CITY           SKY/WX    TMP DP  RH WIND       PRES   REMARKS
MANISTIQUE     SUNNY     67  52  58 S10G17    29.78F
ESCANABA       PTSUNNY   73  55  53 S12G20    29.76S
MENOMINEE      MOSUNNY   77  57  50 S10       29.76S
SAWYER-GWINN   PTSUNNY   70  63  78 SW9       29.76F
$$
MIZ001>003-009>011-084-292100-
WESTERN UPPER MICHIGAN

CITY           SKY/WX    TMP DP  RH WIND       PRES   REMARKS
IRON MOUNTAIN  LGT RAIN  68  63  84 W3        29.76F
HOUGHTON       PTSUNNY   71  58  63 NW14      29.73R
COPPER HARBOR    N/A     58  56  93 N8        29.72F
$$

ABBREVIATIONS USED IN REMARKS
   TC - TEMPERATURE IN CELSIUS
  WCI - WIND CHILL INDEX
   HX - HEAT INDEX
  VSB - VISIBILITY



USA.gov is the U.S. government's official web portal to all federal, state and local government web resources and services.